Terug naar catalogus

BRO-12

ActiefWetenschapSSO
NORAD 59108·PAYLOAD·🇫🇷 France

Gelanceerd Mar 4, 2024 vanaf Vandenberg Space Force Base

Loading…

Volgende Passages (komende 24 uur)

TLE

VersSource: Space-Track

Epoch: Sep 14, 2026, 22:16 UTC

1 59108U 24043L   26257.92808576  .00001162  00000-0  10610-3 0  9994
2 59108  97.8606  29.4818 0009732  60.1745 300.0442 14.97014524138065

Volg BRO-12 in realtime met AllMySat

Download on the App Store